• In Hungary
  • List of Countries
  • For 7 days
  • Water Temperature
  • Satellite Maps
  • Weather Map
  • News
  • Weather Widgets
  • user-avatar
    Login

    Hourly Weather Steneckoe

    Today, 14 August, Tuesday

    Time Temperature Precipitation Wind Pressure Humidity
    00:00 +12°C° 0 mm 2 mps 742 mmHg 97%
    01:00 +12°C° 0 mm 2 mps 743 mmHg 97%
    02:00 +10°C° 0 mm 2 mps 743 mmHg 97%
    03:00 +10°C° 0 mm 2 mps 743 mmHg 97%
    04:00 +10°C° 0 mm 2 mps 744 mmHg 97%
    05:00 +10°C° 0 mm 2 mps 744 mmHg 97%
    06:00 +13°C° 0 mm 2 mps 744 mmHg 91%
    07:00 +14°C° 0 mm 3 mps 744 mmHg 85%
    08:00 +16°C° 0 mm 3 mps 745 mmHg 79%
    09:00 +18°C° 0 mm 3 mps 745 mmHg 69%
    10:00 +19°C° 0 mm 3 mps 745 mmHg 60%
    11:00 +21°C° 0 mm 4 mps 745 mmHg 50%
    12:00 +21°C° 0 mm 3 mps 745 mmHg 49%
    13:00 +22°C° 0 mm 3 mps 745 mmHg 47%
    14:00 +22°C° 0 mm 3 mps 745 mmHg 46%
    15:00 +22°C° 0 mm 3 mps 745 mmHg 50%
    16:00 +21°C° 0 mm 2 mps 745 mmHg 55%
    17:00 +22°C° 0 mm 1 mps 745 mmHg 59%
    18:00 +20°C° 0 mm 1 mps 745 mmHg 65%
    19:00 +18°C° 0 mm 1 mps 745 mmHg 71%
    20:00 +14°C° 0 mm 0 mps 745 mmHg 77%
    21:00 +14°C° 0 mm 1 mps 745 mmHg 80%
    22:00 +14°C° 0 mm 1 mps 745 mmHg 82%
    23:00 +13°C° 0 mm 1 mps 745 mmHg 84%

    Tomorrow, 15 August, Wednesday

    Time Temperature Precipitation Wind Pressure Humidity
    00:00 +13°C° 0 mm 1 mps 745 mmHg 84%
    01:00 +14°C° 0 mm 1 mps 745 mmHg 83%
    02:00 +14°C° 0 mm 1 mps 744 mmHg 83%
    03:00 +14°C° 0.1 mm 2 mps 744 mmHg 85%
    04:00 +14°C° 0.1 mm 2 mps 743 mmHg 88%
    05:00 +15°C° 0.1 mm 2 mps 743 mmHg 91%
    06:00 +14°C° 1.1 mm 3 mps 742 mmHg 91%
    07:00 +16°C° 1.1 mm 3 mps 742 mmHg 92%
    08:00 +16°C° 1.1 mm 3 mps 741 mmHg 93%
    09:00 +18°C° 0.7 mm 3 mps 741 mmHg 93%
    10:00 +19°C° 0.7 mm 3 mps 740 mmHg 92%
    11:00 +20°C° 0.7 mm 4 mps 740 mmHg 92%
    12:00 +20°C° 1 mm 4 mps 740 mmHg 92%
    13:00 +20°C° 1 mm 3 mps 740 mmHg 92%
    14:00 +20°C° 1 mm 3 mps 739 mmHg 92%
    15:00 +20°C° 0.3 mm 3 mps 740 mmHg 92%
    16:00 +19°C° 0.3 mm 3 mps 740 mmHg 91%
    17:00 +19°C° 0.3 mm 3 mps 740 mmHg 91%
    18:00 +18°C° 0.2 mm 3 mps 741 mmHg 93%
    19:00 +17°C° 0.2 mm 3 mps 741 mmHg 95%
    20:00 +16°C° 0.2 mm 2 mps 742 mmHg 97%
    21:00 +15°C° 0 mm 2 mps 742 mmHg 97%
    22:00 +14°C° 0 mm 2 mps 742 mmHg 97%
    23:00 +14°C° 0 mm 2 mps 743 mmHg 97%

    Day after tomorrow, 16 August, Thursday

    Time Temperature Precipitation Wind Pressure Humidity
    00:00 +13°C° 0 mm 2 mps 743 mmHg 97%
    01:00 +13°C° 0 mm 2 mps 744 mmHg 97%
    02:00 +12°C° 0 mm 1 mps 744 mmHg 97%
    03:00 +12°C° 0 mm 1 mps 745 mmHg 97%
    04:00 +11°C° 0 mm 1 mps 745 mmHg 97%
    05:00 +11°C° 0 mm 1 mps 746 mmHg 97%
    06:00 +12°C° 0 mm 1 mps 746 mmHg 93%
    07:00 +14°C° 0 mm 1 mps 746 mmHg 90%
    08:00 +15°C° 0 mm 1 mps 747 mmHg 86%
    09:00 +17°C° 0 mm 2 mps 747 mmHg 76%
    10:00 +19°C° 0 mm 2 mps 748 mmHg 65%
    11:00 +21°C° 0 mm 2 mps 748 mmHg 55%
    12:00 +21°C° 0 mm 2 mps 748 mmHg 53%
    13:00 +23°C° 0 mm 2 mps 748 mmHg 51%
    14:00 +23°C° 0 mm 2 mps 748 mmHg 48%
    15:00 +23°C° 0 mm 2 mps 748 mmHg 52%
    16:00 +21°C° 0 mm 2 mps 748 mmHg 55%
    17:00 +22°C° 0 mm 1 mps 749 mmHg 58%
    18:00 +20°C° 0 mm 1 mps 749 mmHg 64%
    19:00 +18°C° 0 mm 1 mps 749 mmHg 71%
    20:00 +15°C° 0 mm 1 mps 750 mmHg 77%
    21:00 +14°C° 0 mm 1 mps 750 mmHg 79%
    22:00 +13°C° 0 mm 1 mps 750 mmHg 81%
    23:00 +13°C° 0 mm 1 mps 751 mmHg 83%

    17 August, Friday

    Time Temperature Precipitation Wind Pressure Humidity
    00:00 +12°C° 0 mm 1 mps 751 mmHg 85%
    01:00 +12°C° 0 mm 1 mps 751 mmHg 87%
    02:00 +11°C° 0 mm 1 mps 751 mmHg 88%
    03:00 +11°C° 0 mm 1 mps 752 mmHg 89%
    04:00 +11°C° 0 mm 1 mps 752 mmHg 89%
    05:00 +10°C° 0 mm 0 mps 752 mmHg 89%
    06:00 +12°C° 0 mm 0 mps 752 mmHg 81%
    07:00 +16°C° 0 mm 1 mps 752 mmHg 72%
    08:00 +19°C° 0 mm 1 mps 753 mmHg 63%
    09:00 +21°C° 0 mm 1 mps 753 mmHg 58%
    10:00 +22°C° 0 mm 1 mps 753 mmHg 52%
    11:00 +24°C° 0 mm 1 mps 753 mmHg 47%
    12:00 +24°C° 0 mm 1 mps 753 mmHg 45%
    13:00 +25°C° 0 mm 1 mps 753 mmHg 44%
    14:00 +23°C° 0 mm 0 mps 752 mmHg 42%
    15:00 +25°C° 0 mm 1 mps 752 mmHg 46%
    16:00 +24°C° 0 mm 1 mps 752 mmHg 51%
    17:00 +23°C° 0 mm 1 mps 752 mmHg 55%
    18:00 +21°C° 0 mm 1 mps 752 mmHg 61%
    19:00 +19°C° 0 mm 1 mps 752 mmHg 67%
    20:00 +16°C° 0 mm 1 mps 752 mmHg 72%
    21:00 +15°C° 0 mm 1 mps 752 mmHg 75%
    22:00 +14°C° 0 mm 1 mps 752 mmHg 79%
    23:00 +14°C° 0 mm 1 mps 752 mmHg 82%

    18 August, Saturday

    Time Temperature Precipitation Wind Pressure Humidity
    00:00 +13°C° 0 mm 1 mps 752 mmHg 83%
    01:00 +13°C° 0 mm 1 mps 752 mmHg 85%
    02:00 +12°C° 0 mm 1 mps 752 mmHg 87%
    03:00 +12°C° 0 mm 1 mps 752 mmHg 88%
    04:00 +12°C° 0 mm 1 mps 752 mmHg 88%
    05:00 +12°C° 0 mm 1 mps 752 mmHg 89%
    06:00 +14°C° 0 mm 2 mps 752 mmHg 82%
    07:00 +16°C° 0 mm 2 mps 752 mmHg 74%
    08:00 +18°C° 0 mm 2 mps 752 mmHg 67%
    09:00 +20°C° 0 mm 2 mps 752 mmHg 60%
    10:00 +22°C° 0 mm 3 mps 752 mmHg 54%
    11:00 +24°C° 0 mm 3 mps 752 mmHg 48%
    12:00 +25°C° 0 mm 3 mps 751 mmHg 47%
    13:00 +25°C° 0 mm 3 mps 751 mmHg 46%
    14:00 +26°C° 0 mm 3 mps 751 mmHg 45%
    15:00 +25°C° 0 mm 3 mps 750 mmHg 49%
    16:00 +25°C° 0 mm 2 mps 750 mmHg 54%
    17:00 +24°C° 0 mm 2 mps 750 mmHg 59%
    18:00 +23°C° 0 mm 2 mps 750 mmHg 66%
    19:00 +20°C° 0 mm 2 mps 750 mmHg 73%
    20:00 +18°C° 0 mm 2 mps 750 mmHg 80%
    21:00 +17°C° 0 mm 2 mps 749 mmHg 81%
    22:00 +17°C° 0 mm 3 mps 749 mmHg 82%
    23:00 +16°C° 0 mm 3 mps 749 mmHg 83%

    19 August, Sunday

    Time Temperature Precipitation Wind Pressure Humidity
    00:00 +16°C° 0 mm 3 mps 749 mmHg 83%
    01:00 +16°C° 0 mm 3 mps 749 mmHg 83%
    02:00 +14°C° 0 mm 3 mps 749 mmHg 83%
    03:00 +14°C° 0 mm 3 mps 748 mmHg 83%
    04:00 +14°C° 0 mm 3 mps 748 mmHg 83%
    05:00 +14°C° 0 mm 3 mps 748 mmHg 83%
    06:00 +16°C° 0 mm 3 mps 748 mmHg 79%
    07:00 +18°C° 0 mm 3 mps 748 mmHg 74%
    08:00 +19°C° 0 mm 3 mps 747 mmHg 70%
    09:00 +20°C° 0.1 mm 4 mps 747 mmHg 69%
    10:00 +22°C° 0.1 mm 4 mps 747 mmHg 67%
    11:00 +23°C° 0.1 mm 4 mps 746 mmHg 66%
    12:00 +23°C° 0.3 mm 4 mps 746 mmHg 68%
    13:00 +23°C° 0.3 mm 4 mps 746 mmHg 70%
    14:00 +25°C° 0.3 mm 4 mps 745 mmHg 72%
    15:00 +24°C° 0.8 mm 3 mps 745 mmHg 77%
    16:00 +22°C° 0.8 mm 3 mps 745 mmHg 82%
    17:00 +22°C° 0.8 mm 3 mps 745 mmHg 87%
    18:00 +21°C° 0.4 mm 2 mps 745 mmHg 90%
    19:00 +19°C° 0.4 mm 2 mps 745 mmHg 93%
    20:00 +18°C° 0.4 mm 2 mps 745 mmHg 96%
    21:00 +17°C° 0 mm 2 mps 745 mmHg 96%
    22:00 +18°C° 0 mm 1 mps 745 mmHg 96%
    23:00 +16°C° 0 mm 1 mps 745 mmHg 96%
    Show more